Regional Weather Roundup
Issued by NWS

Home | Current Version | Previous Version | Graphics & Text | Print | Product List | Glossary On
Versions: 1 2 3 4 5 6 7 8 9 10 11 12 13 14 15 16 17 18 19 20 21 22 23 24 25 26 27 28 29 30 31
000
ASUS43 KDMX 292107
RWRIA

WEATHER ROUNDUP FOR IOWA
NATIONAL WEATHER SERVICE DES MOINES IA
400 PM CDT WED OCT 29 2014

NOTE: "FAIR" INDICATES FEW OR NO CLOUDS BELOW 12,000 FEET WITH NO
SIGNIFICANT WEATHER AND/OR OBSTRUCTIONS TO VISIBILITY.

* - THESE STATIONS ARE NOT NWS STATIONS...THUS NOT UNDER NWS
QUALITY CONTROL.  THEY ALSO DO NOT REPORT WEATHER SUCH
AS PRECIPITATION OR FOG.

IAZ001>003-012>014-020>022-031>034-043>046-292200-
   NORTHWEST IOWA

CITY           SKY/WX    TMP DP  RH WIND       PRES   REMARKS
CARROLL *      SUNNY     52  30  43 VRB5      30.12F
CHEROKEE *     SUNNY     52  32  46 S5        30.11F
DENISON *      SUNNY     54  32  43 VRB6      30.10F
LE MARS *      SUNNY     52  30  43 S6        30.10F
ORANGE CITY *  SUNNY     54  28  37 SW6       30.09F
SHELDON *      SUNNY     50  30  46 SW7G13    30.08F
SIOUX CITY     SUNNY     55  29  36 SE6       30.10F
SPENCER        SUNNY     51  31  46 VRB7      30.10F
STORM LAKE *   SUNNY     52  28  40 SW6G12    30.12F
$$

IAZ055>058-069>071-079>083-090>094-292200-
   SOUTHWEST IOWA

CITY           SKY/WX    TMP DP  RH WIND       PRES   REMARKS
ATLANTIC *     SUNNY     54  32  43 VRB3      30.13F
AUDUBON *      SUNNY     54  27  35 CALM      30.13F
CLARINDA *     SUNNY     55  32  41 W6        30.16F
COUNCIL BLFS * SUNNY     55  30  38 VRB5      30.12F
CRESTON *      SUNNY     52  34  50 NW8       30.14F
HARLAN  *      SUNNY     54  32  43 W5        30.16F
LAMONI         SUNNY     54  34  46 W6        30.15F
RED OAK *      SUNNY     55  32  41 SW6       30.14F
SHENANDOAH *   SUNNY     55  30  38 VRB3      30.15S
$$

IAZ047>049-059>061-072>074-084-292200-
   CENTRAL IOWA

CITY           SKY/WX    TMP DP  RH WIND       PRES   REMARKS
AMES           SUNNY     52  33  48 W3        30.13F
ANKENY *       SUNNY     52  36  54 VRB5      30.14F
CHARITON *     SUNNY     54  36  50 VRB7      30.15S
DES MOINES     SUNNY     55  33  43 VRB3      30.14F
GRINNELL*      SUNNY     50  34  53 NW5       30.15F
KNOXVILLE *    SUNNY     52  32  46 VRB6G14   30.14S
MARSHALLTOWN   SUNNY     49  34  56 NW6       30.13F
PELLA *        SUNNY     54  36  50 W8        30.16S
PERRY *          N/A     54  32  43 SW3       30.13F
$$

IAZ004>006-015-016-023>025-035-036-292200-
   NORTH CENTRAL IOWA

CITY           SKY/WX    TMP DP  RH WIND       PRES   REMARKS
ALGONA *       SUNNY     50  32  50 VRB5      30.12F
CLARION *      SUNNY     50  34  53 W6G13     30.13S
ESTHERVILLE    SUNNY     49  30  48 SW6       30.10F
FORT DODGE *   SUNNY     52  34  50 SW6       30.13F
MASON CITY     SUNNY     47  33  58 NW6       30.14F
FOREST CITY *  SUNNY     46  36  66 W6        30.13S
IOWA FALLS *     N/A     50  34  53 NW5       30.14F
$$

IAZ007>011-017>019-026>030-037>042-050>054-066-292200-
   NORTHEAST IOWA

CITY           SKY/WX    TMP DP  RH WIND       PRES   REMARKS
CEDAR RAPIDS   SUNNY     50  33  52 NW14      30.13S
CHARLES CITY * SUNNY     46  32  57 NW8       30.13F
CLINTON *      MOSUNNY   48  30  49 NW9       30.16R
DECORAH *      PTSUNNY   46  32  57 VRB5      30.11S
DUBUQUE        SUNNY     46  33  60 NW9       30.13R
MONTICELLO *   SUNNY     50  32  50 NW12      30.12S
OELWEIN *      SUNNY     46  32  57 VRB7      30.13F
WATERLOO       SUNNY     49  32  52 NW9       30.13F
$$

IAZ064-065-067-068-078-292200-
   EAST CENTRAL IOWA

CITY           SKY/WX    TMP DP  RH WIND       PRES   REMARKS
DAVENPORT      SUNNY     51  29  42 NW10      30.13S
IOWA CITY      SUNNY     50  33  52 W9        30.15S
MT. PLEASANT * SUNNY     50  32  50 NW9       30.15F
MUSCATINE *    SUNNY     54  32  43 NW10G18   30.14S
QUAD CITIES    SUNNY     51  31  46 W9        30.13S
$$

IAZ062-063-075>077-085>089-095>099-292200-
   SOUTHEAST IOWA

CITY           SKY/WX    TMP DP  RH WIND       PRES   REMARKS
BURLINGTON     MOSUNNY   52  34  50 NW9       30.14F
FAIRFIELD *    SUNNY     50  34  53 NW10      30.15S
FORT MADISON * SUNNY     55  37  50 NW9       30.15S
KEOKUK *       SUNNY     54  36  50 W8        30.14S
OSKALOOSA *      N/A     50  34  53 NW8       30.15F
CENTERVILLE *  SUNNY     54  34  47 NW3       30.16F
OTTUMWA        LGT RAIN  51  34  52 W8        30.14F
WASHINGTON *   SUNNY     52  34  50 NW10      30.15S
$$

ABBREVIATIONS USED IN REMARKS
   TC - TEMPERATURES IN CELSIUS
  WCI - WIND CHILL INDEX
   HX - HEAT INDEX
  VSB - VISIBILITY
$$




USA.gov is the U.S. government's official web portal to all federal, state and local government web resources and services.